EA1GLE Weather Reports


Display with metric or nautical units.
time (UTC)temp
F
wind
direction
speed
MPH
gust
MPH
rain 1hr
in
rain 24hr
in
rain mn
in
humidity
%
barometer
mb
20260503004503 49 0 0.0 0.0 0.00 0.65 0.00 99 1016.7
20260503003603 49 55 0.0 2.0 0.00 0.65 0.00 99 1016.8
20260503002703 49 268 0.0 2.0 0.00 0.65 0.00 99 1016.9
20260503002018 49 42 0.0 1.0 0.00 0.65 0.00 99 1016.7
20260503001118 49 0 0.0 0.0 0.00 0.65 0.00 99 1016.9
20260502235403 50 155 0.0 3.0 0.00 0.65 0.00 99 1017.0
20260502234503 49 342 0.0 2.0 0.00 0.65 0.00 99 1016.9
20260502233603 49 0 0.0 0.0 0.00 0.65 0.00 99 1017.0
20260502232703 49 0 0.0 0.0 0.00 0.65 0.00 99 1017.1
20260502231803 50 0 0.0 0.0 0.00 0.65 0.00 99 1017.0
20260502230903 49 0 0.0 0.0 0.00 0.65 0.00 99 1016.9
20260502230003 50 66 0.0 1.0 0.00 0.65 0.00 99 1017.0
20260502225403 50 58 0.0 1.0 0.00 0.65 0.00 99 1017.1
20260502224503 50 58 0.0 1.0 0.00 0.65 0.00 99 1016.9
20260502223603 49 0 0.0 0.0 0.00 0.65 0.00 99 1016.8
20260502221803 50 0 0.0 0.0 0.00 0.65 0.00 99 1017.0
20260502220903 50 40 0.0 3.0 0.00 0.65 0.00 99 1017.0
20260502220003 50 45 2.0 3.0 0.00 0.65 0.00 99 1016.7
20260502215403 51 49 1.0 3.0 0.00 0.65 0.65 99 1016.9
20260502214503 51 61 0.0 2.0 0.00 0.65 0.65 99 1017.1
20260502213603 51 0 0.0 0.0 0.00 0.65 0.65 99 1016.9
20260502211116 52 65 0.0 2.0 0.00 0.65 0.65 99 1017.2
20260502210003 52 75 0.0 2.0 0.00 0.65 0.65 99 1017.0
20260502205403 52 61 1.0 3.0 0.00 0.65 0.65 99 1016.8
20260502204717 52 55 1.0 3.0 0.00 0.65 0.65 99 1017.1
20260502203818 52 59 0.0 2.0 0.00 0.65 0.65 99 1017.4
20260502201803 52 0 0.0 0.0 0.00 0.65 0.65 99 1016.8
20260502200903 52 0 0.0 0.0 0.00 0.65 0.65 99 1016.5
20260502200217 52 52 0.0 2.0 0.00 0.65 0.65 99 1016.7
20260502195403 52 63 0.0 1.0 0.00 0.65 0.65 99 1016.7
20260502194716 52 59 0.0 1.0 0.00 0.65 0.65 99 1016.6
20260502192917 53 54 1.0 2.0 0.00 0.65 0.65 99 1016.4
20260502191803 53 68 0.0 2.0 0.01 0.65 0.65 99 1016.5
20260502190903 53 52 1.0 3.0 0.02 0.65 0.65 99 1016.2
20260502190004 54 55 1.0 2.0 0.02 0.65 0.65 99 1016.2
20260502185617 54 64 1.0 2.0 0.02 0.65 0.65 99 1016.5
20260502184503 54 79 0.0 2.0 0.02 0.65 0.65 99 1016.2
20260502183603 54 60 1.0 4.0 0.02 0.65 0.65 99 1016.2
20260502181803 54 234 1.0 2.0 0.01 0.64 0.64 99 1016.8
20260502180903 54 176 1.0 2.0 0.00 0.63 0.63 99 1016.8
20260502163603 54 58 0.0 1.0 0.04 0.50 0.50 91 1017.0
20260502162703 55 72 0.0 1.0 0.03 0.49 0.49 89 1016.8
20260502161803 55 167 1.0 3.0 0.02 0.48 0.48 86 1016.6
20260502160903 56 274 3.0 7.0 0.01 0.47 0.47 78 1016.6
20260502160218 57 271 3.0 7.0 0.00 0.46 0.46 77 1016.8
20260502123603 56 168 3.0 6.0 0.11 0.22 0.22 96 1018.4
20260502120903 55 230 4.0 8.0 0.18 0.21 0.21 96 1018.5
20260502115403 55 231 5.0 10.0 0.13 0.14 0.15 94 1018.9
20260502114503 55 206 4.0 8.0 0.11 0.12 0.12 94 1018.9
20260502113603 56 198 4.0 9.0 0.10 0.11 0.11 93 1018.9
20260502112703 55 196 5.0 10.0 0.06 0.07 0.07 91 1018.9
20260502110903 58 185 8.0 18.0 0.02 0.03 0.03 85 1018.9
20260502110003 60 169 6.0 16.0 0.00 0.01 0.01 81 1018.5
20260502105403 60 150 5.0 16.0 0.00 0.01 0.01 82 1018.1
20260502104503 60 164 7.0 18.0 0.00 0.01 0.01 81 1018.0
20260502103816 61 161 7.0 15.0 0.00 0.01 0.01 76 1018.6
20260502101803 62 159 6.0 14.0 0.00 0.01 0.01 78 1018.8
20260502101118 61 161 6.0 15.0 0.00 0.01 0.01 78 1019.0
20260502090903 60 162 7.0 15.0 0.01 0.01 0.01 83 1019.2
20260502070903 58 95 2.0 7.0 0.00 0.00 0.00 84 1019.2
20260502070003 58 96 2.0 7.0 0.00 0.00 0.00 84 1019.3
20260502065618 58 98 2.0 7.0 0.00 0.00 0.00 84 1019.5
20260502064503 58 65 2.0 4.0 0.00 0.00 0.00 84 1019.4
20260502063603 57 67 2.0 8.0 0.00 0.00 0.00 84 1019.1
20260502062703 57 78 2.0 6.0 0.00 0.00 0.00 84 1019.2
20260502061803 57 94 2.0 9.0 0.00 0.00 0.00 84 1019.2
20260502060903 57 90 2.0 9.0 0.00 0.00 0.00 84 1019.4
20260502060003 57 94 2.0 7.0 0.00 0.00 0.00 84 1019.2
20260502052703 57 80 2.0 6.0 0.00 0.00 0.00 84 1019.0
20260502052017 57 81 2.0 7.0 0.00 0.00 0.00 83 1019.3
20260502051118 57 83 2.0 7.0 0.00 0.00 0.00 83 1019.2
20260502050003 57 77 2.0 7.0 0.00 0.00 0.00 83 1019.2
20260502045403 57 84 2.0 6.0 0.00 0.00 0.00 83 1019.1
20260502044504 57 88 2.0 7.0 0.00 0.00 0.00 83 1019.1
20260502043818 57 91 2.0 7.0 0.00 0.00 0.00 83 1019.4
20260502042703 57 82 2.0 4.0 0.00 0.00 0.00 84 1019.3
20260502041803 56 83 1.0 8.0 0.00 0.00 0.00 85 1019.3
20260502040903 56 70 2.0 6.0 0.00 0.00 0.00 85 1019.4
20260502034503 56 45 3.0 6.0 0.00 0.00 0.00 86 1019.5
20260502033817 56 36 2.0 3.0 0.00 0.00 0.00 86 1019.5
20260502032703 57 28 1.0 3.0 0.00 0.00 0.00 85 1019.8
20260502031803 56 64 0.0 1.0 0.00 0.00 0.00 86 1019.7
20260502030003 56 71 1.0 2.0 0.00 0.00 0.00 88 1019.5
20260502025403 55 80 0.0 2.0 0.00 0.00 0.00 89 1019.4
20260502024503 55 76 0.0 3.0 0.00 0.00 0.00 88 1019.4
20260502023817 55 96 0.0 2.0 0.00 0.00 0.00 87 1019.7
20260502022703 55 106 0.0 2.0 0.00 0.00 0.00 89 1019.5
20260502021803 55 188 1.0 2.0 0.00 0.00 0.00 88 1019.8
20260502020003 56 79 0.0 2.0 0.00 0.00 0.00 86 1019.6
20260502015403 56 76 1.0 3.0 0.00 0.00 0.00 86 1019.9
20260502014503 56 65 1.0 6.0 0.00 0.00 0.00 86 1019.8
20260502013603 56 42 1.0 6.0 0.00 0.00 0.00 86 1019.9
20260502012705 56 40 1.0 2.0 0.00 0.00 0.00 87 1020.0